Location: Acts Church of Fort Worth
(32.6786°N, 97.2668°W)
Time: 09:24:53
(UTC+00:00)

Cosmos 1741 Rocket - Pass Details

Date: 18 January 2026
Orbit: 758 x 777 km, 74.0° (Epoch: 9 February)

Event Time Altitude Azimuth Distance (km) Brightness Sun altitude
Rises 00:02:34 0° 352° (N) 3,225 7.1 -3.7°
Reaches altitude 10° 00:05:06 10° 0° (N) 2,294 6.3 -4.2°
Maximum altitude 00:09:56 38° 69° (ENE) 1,138 4.4 -5.1°
Drops below altitude 10° 00:14:44 10° 137° (SE) 2,278 6.2 -6.0°
Sets 00:17:14 0° 145° (SE) 3,200 7.1 -6.5°
